Ogallala, NE

6:12 AM MDT on September 22, 2017 (GMT -0600)
Searle

Weather History for KOGA - March, 2014

Change the Weather History Date:

Sunday, March 23, 2014

  Actual Average Record
Temperature  
Mean Temperature 22 °F -  
Max Temperature 41 °F 52 °F 79 °F (2017)
Min Temperature 2 °F 25 °F 2 °F (2014)
Degree Days  
Heating Degree Days 44    
Moisture  
Dew Point 19 °F    
Average Humidity 82    
Maximum Humidity 91    
Minimum Humidity 72    
Precipitation  
Precipitation 0.00 in - - ()
Sea Level Pressure  
Sea Level Pressure 30.21 in    
Wind  
Wind Speed 6 mph (SE)    
Max Wind Speed 16 mph    
Max Gust Speed 20 mph    
Visibility 9 miles    
Events Snow    
Averages and records for this station are not official NWS values.
T = Trace of Precipitation, MM = Missing Value Source: NWS Daily Summary

Daily Weather History Graph

Daily Weather History Graph

Search for Another Location

Airport or City:

Trip Planner

Search our weather history database for the weather conditions in past years. The results will help you decide how hot, cold, wet, or windy it might be!

Date:

Astronomy

Mar. 23, 2014 Rise Set
Actual Time 6:45 AM MDT 7:02 PM MDT
Civil Twilight 6:17 AM MDT 7:30 PM MDT
Nautical Twilight 5:45 AM MDT 8:02 PM MDT
Astronomical Twilight 5:12 AM MDT 8:35 PM MDT
Moon 1:23 AM MDT (3/23) 11:26 AM MDT (3/23)
Length of Visible Light 13h 12m
Length of Day
12h 17m
Waning Gibbous, 54% of the Moon is Illuminated
Mar 23
Waning Gibbous
Mar 23
Last Quarter
Mar 30
New
Apr 7
First Quarter
Apr 15
Full

Hourly Weather History & Observations

Time (MDT) Temp. Windchill Dew Point Humidity Pressure Visibility Wind Dir Wind Speed Gust Speed Precip Events Conditions
12:15 AM 7.7 °F - 4.5 °F 87% 30.43 in 10.0 mi Calm Calm - N/A   Clear
12:35 AM 7.7 °F -0.9 °F 4.3 °F 86% 30.43 in 10.0 mi WSW 4.6 mph - N/A   Clear
12:55 AM 7.3 °F 0.5 °F 4.3 °F 87% 30.43 in 10.0 mi West 3.5 mph - N/A   Clear
1:15 AM 6.8 °F -2.0 °F 3.6 °F 87% 30.43 in 10.0 mi West 4.6 mph - N/A   Clear
1:35 AM 5.9 °F -1.1 °F 3.2 °F 89% 30.43 in 10.0 mi West 3.5 mph - N/A   Clear
1:55 AM 5.2 °F -3.8 °F 1.6 °F 85% 30.43 in 10.0 mi WSW 4.6 mph - N/A   Clear
2:15 AM 5.5 °F -1.5 °F 2.3 °F 86% 30.42 in 10.0 mi West 3.5 mph - N/A   Clear
2:35 AM 4.5 °F -2.7 °F 0.9 °F 85% 30.41 in 10.0 mi WSW 3.5 mph - N/A   Clear
2:55 AM 3.4 °F - -0.6 °F 84% 30.41 in 10.0 mi Calm Calm - N/A   Clear
3:15 AM 2.8 °F - -1.5 °F 82% 30.40 in 10.0 mi Calm Calm - N/A   Clear
3:35 AM 4.3 °F - 0.3 °F 84% 30.39 in 10.0 mi Calm Calm - N/A   Clear
3:55 AM 3.9 °F - -0.2 °F 83% 30.39 in 10.0 mi Calm Calm - N/A   Clear
4:15 AM 2.3 °F - -1.8 °F 83% 30.38 in 10.0 mi Calm Calm - N/A   Scattered Clouds
4:35 AM 3.6 °F - -0.8 °F 82% 30.37 in 10.0 mi Calm Calm - N/A   Scattered Clouds
4:55 AM 3.2 °F - -1.1 °F 82% 30.37 in 10.0 mi Calm Calm - N/A   Mostly Cloudy
5:15 AM 4.1 °F - 0.3 °F 84% 30.36 in 10.0 mi Calm Calm - N/A   Scattered Clouds
5:35 AM 5.0 °F - 1.2 °F 84% 30.36 in 5.0 mi Calm Calm - N/A   Scattered Clouds
5:55 AM 5.5 °F - 1.8 °F 84% 30.36 in 7.0 mi Calm Calm - N/A Snow Light Snow
6:15 AM 5.9 °F - 2.1 °F 84% 30.36 in 2.5 mi Calm Calm - N/A Snow Light Snow
6:35 AM 6.8 °F - 3.2 °F 85% 30.36 in 5.0 mi Calm Calm - N/A Snow Light Snow
6:55 AM - - - N/A% 30.36 in 10.0 mi Calm Calm - N/A   Unknown
7:15 AM - - - N/A% 30.35 in 7.0 mi Calm Calm - N/A   Unknown
7:35 AM - - - N/A% 30.35 in 7.0 mi Calm Calm - N/A   Unknown
7:55 AM - - - N/A% 30.34 in 7.0 mi Calm Calm - N/A   Unknown
8:15 AM - - - N/A% 30.33 in 7.0 mi Calm Calm - N/A   Unknown
8:35 AM - - - N/A% 30.32 in 10.0 mi Calm Calm - N/A   Overcast
8:55 AM - - - N/A% 30.32 in 7.0 mi South 4.6 mph - N/A   Overcast
9:15 AM - - - N/A% 30.31 in 4.0 mi SSE 9.2 mph - N/A   Haze
9:35 AM 19.4 °F 7.9 °F 17.1 °F 91% 30.30 in 5.0 mi South 10.4 mph - N/A   Overcast
9:55 AM 20.3 °F 8.3 °F 18.0 °F 91% 30.29 in 5.0 mi South 11.5 mph - N/A   Overcast
10:15 AM 21.2 °F 10.1 °F 18.7 °F 90% 30.28 in 3.0 mi SSE 10.4 mph - N/A   Overcast
10:35 AM 21.7 °F 10.8 °F 19.2 °F 90% 30.27 in 7.0 mi South 10.4 mph 17.3 mph N/A   Overcast
10:55 AM 23.0 °F 10.6 °F 19.6 °F 87% 30.26 in 7.0 mi South 13.8 mph - N/A   Overcast
11:15 AM 24.4 °F 11.9 °F 20.1 °F 84% 30.25 in 10.0 mi SSW 15.0 mph - N/A   Overcast
11:35 AM 24.6 °F 12.2 °F 19.4 °F 81% 30.25 in 10.0 mi South 15.0 mph - N/A   Overcast
11:55 AM 24.8 °F 12.9 °F 19.9 °F 82% 30.24 in 10.0 mi South 13.8 mph - N/A   Overcast
12:15 PM 25.7 °F 14.0 °F 20.5 °F 81% 30.22 in 10.0 mi South 13.8 mph 17.3 mph N/A   Overcast
12:35 PM 27.1 °F 15.9 °F 21.2 °F 78% 30.20 in 10.0 mi South 13.8 mph 18.4 mph N/A   Overcast
12:55 PM 28.2 °F 16.3 °F 21.9 °F 77% 30.19 in 10.0 mi South 16.1 mph 19.6 mph N/A   Overcast
1:15 PM 29.3 °F 17.7 °F 22.6 °F 76% 30.17 in 10.0 mi South 16.1 mph - N/A   Overcast
1:35 PM 30.2 °F 20.8 °F 23.5 °F 76% 30.15 in 10.0 mi South 11.5 mph 19.6 mph N/A   Overcast
1:55 PM 31.5 °F 21.8 °F 25.0 °F 77% 30.13 in 10.0 mi South 12.7 mph - N/A   Overcast
2:15 PM 32.4 °F 22.5 °F 26.6 °F 79% 30.11 in 10.0 mi South 13.8 mph - N/A   Overcast
2:35 PM 34.3 °F 25.0 °F 27.5 °F 76% 30.09 in 10.0 mi South 13.8 mph 19.6 mph N/A   Overcast
2:55 PM 35.6 °F 27.1 °F 28.6 °F 76% 30.08 in 10.0 mi South 12.7 mph - N/A   Overcast
3:15 PM 36.0 °F 28.0 °F 29.8 °F 78% 30.07 in 10.0 mi South 11.5 mph - N/A   Overcast
3:35 PM 37.0 °F 30.4 °F 30.2 °F 76% 30.05 in 10.0 mi SSE 9.2 mph - N/A   Overcast
3:55 PM 39.4 °F 32.3 °F 31.8 °F 74% 30.04 in 10.0 mi SE 11.5 mph 17.3 mph N/A   Scattered Clouds
4:15 PM 39.7 °F 33.7 °F 32.2 °F 74% 30.02 in 10.0 mi SE 9.2 mph - N/A   Clear
4:35 PM 41.2 °F 35.5 °F 33.6 °F 74% 30.01 in 10.0 mi SE 9.2 mph - N/A   Clear
4:55 PM 41.4 °F 35.2 °F 33.1 °F 72% 30.00 in 10.0 mi ESE 10.4 mph - N/A   Clear
5:15 PM 41.7 °F 33.7 °F 33.3 °F 72% 29.99 in 10.0 mi East 16.1 mph - N/A   Clear
5:35 PM 41.9 °F 35.9 °F 33.6 °F 72% 29.99 in 10.0 mi East 10.4 mph - N/A   Clear
5:55 PM 41.4 °F 34.3 °F 33.3 °F 73% 29.99 in 10.0 mi East 12.7 mph 17.3 mph N/A   Clear
6:15 PM 41.0 °F 34.7 °F 32.5 °F 72% 29.99 in 10.0 mi East 10.4 mph - N/A   Clear
6:35 PM 39.7 °F 32.3 °F 32.0 °F 74% 29.99 in 10.0 mi East 12.7 mph - N/A   Clear
6:55 PM 38.7 °F 31.4 °F 31.5 °F 75% 30.00 in 10.0 mi ENE 11.5 mph 16.1 mph N/A   Clear
7:15 PM 35.1 °F 26.4 °F 30.0 °F 82% 30.01 in 10.0 mi ENE 12.7 mph - N/A   Clear
7:35 PM 32.7 °F 23.4 °F 29.1 °F 87% 30.02 in 10.0 mi ENE 12.7 mph 18.4 mph N/A   Clear
7:55 PM 31.8 °F 23.3 °F 28.2 °F 87% 30.03 in 10.0 mi ENE 10.4 mph - N/A   Clear
8:15 PM 31.3 °F 22.1 °F 27.9 °F 87% 30.04 in 10.0 mi East 11.5 mph - N/A   Clear
8:35 PM 30.9 °F 21.7 °F 27.5 °F 87% 30.05 in 10.0 mi NE 11.5 mph - N/A   Clear
8:55 PM 30.2 °F 20.2 °F 27.1 °F 88% 30.06 in 10.0 mi NE 12.7 mph - N/A   Scattered Clouds
9:15 PM 30.2 °F 21.9 °F 27.1 °F 88% 30.06 in 10.0 mi ENE 9.2 mph - N/A   Mostly Cloudy
9:35 PM 30.4 °F 21.5 °F 26.8 °F 86% 30.07 in 10.0 mi NE 10.4 mph - N/A   Mostly Cloudy
9:55 PM 30.2 °F 19.3 °F 26.6 °F 86% 30.09 in 10.0 mi NE 15.0 mph - N/A   Scattered Clouds
10:15 PM 30.0 °F 18.7 °F 26.4 °F 86% 30.11 in 10.0 mi NE 16.1 mph 19.6 mph N/A   Mostly Cloudy
10:35 PM 29.8 °F 18.9 °F 26.1 °F 86% 30.12 in 10.0 mi NNE 15.0 mph - N/A   Scattered Clouds
10:55 PM 30.2 °F 19.3 °F 26.4 °F 86% 30.13 in 10.0 mi NE 15.0 mph - N/A   Mostly Cloudy
11:15 PM 30.7 °F 24.9 °F 26.4 °F 84% 30.14 in 10.0 mi ENE 5.8 mph - N/A   Overcast
11:35 PM 30.2 °F 22.6 °F 26.1 °F 85% 30.14 in 10.0 mi NNE 8.1 mph - N/A   Mostly Cloudy
11:55 PM 29.8 °F 20.9 °F 25.9 °F 85% 30.14 in 10.0 mi NNE 10.4 mph - N/A   Scattered Clouds